When you browse on this site, cookies collect data to enhance your experience and personalize the content and advertising you see.
Visit our Privacy Policy to learn more. By continuing to use the site, you agree to this use of cookies and data.
  • In Schweiz
  • Länderverzeichnis
  • Für 7 Tage
  • Wassertemperatur
  • Satellitenkarten
  • Wetterkarte
  • Widgets
  • user-avatar
    Anmelden

    Stündliche Wetter Yangzhou

    Heute, 27 Mai, Montag

    Zeit Temperatur Niederschläge Wind Luftdruck Luftfeuchtigkeit
    00:00 +23°C° 0 mm 2 m/S 752 mmHg 91%
    01:00 +23°C° 0 mm 2 m/S 752 mmHg 92%
    02:00 +23°C° 0 mm 2 m/S 752 mmHg 92%
    03:00 +23°C° 0 mm 2 m/S 752 mmHg 92%
    04:00 +23°C° 0 mm 2 m/S 752 mmHg 93%
    05:00 +23°C° 0 mm 2 m/S 753 mmHg 93%
    06:00 +24°C° 0 mm 2 m/S 753 mmHg 88%
    07:00 +26°C° 0 mm 2 m/S 754 mmHg 82%
    08:00 +27°C° 0 mm 3 m/S 754 mmHg 77%
    09:00 +27°C° 0 mm 4 m/S 755 mmHg 76%
    10:00 +27°C° 0 mm 6 m/S 755 mmHg 76%
    11:00 +27°C° 0 mm 8 m/S 756 mmHg 75%
    12:00 +26°C° 0 mm 8 m/S 756 mmHg 70%
    13:00 +24°C° 0 mm 7 m/S 757 mmHg 65%
    14:00 +24°C° 0 mm 7 m/S 757 mmHg 59%
    15:00 +24°C° 0 mm 7 m/S 757 mmHg 55%
    16:00 +26°C° 0 mm 7 m/S 758 mmHg 50%
    17:00 +26°C° 0 mm 7 m/S 758 mmHg 46%
    18:00 +24°C° 0 mm 6 m/S 759 mmHg 48%
    19:00 +22°C° 0 mm 5 m/S 760 mmHg 51%
    20:00 +20°C° 0 mm 4 m/S 760 mmHg 54%
    21:00 +20°C° 0 mm 3 m/S 761 mmHg 56%
    22:00 +19°C° 0 mm 3 m/S 761 mmHg 58%
    23:00 +18°C° 0 mm 2 m/S 762 mmHg 59%

    Morgen, 28 Mai, Dienstag

    Zeit Temperatur Niederschläge Wind Luftdruck Luftfeuchtigkeit
    00:00 +18°C° 0 mm 2 m/S 762 mmHg 60%
    01:00 +18°C° 0 mm 1 m/S 762 mmHg 62%
    02:00 +18°C° 0 mm 1 m/S 762 mmHg 63%
    03:00 +16°C° 0 mm 1 m/S 762 mmHg 63%
    04:00 +16°C° 0 mm 1 m/S 762 mmHg 64%
    05:00 +16°C° 0 mm 1 m/S 762 mmHg 64%
    06:00 +19°C° 0 mm 1 m/S 762 mmHg 58%
    07:00 +20°C° 0 mm 2 m/S 762 mmHg 51%
    08:00 +23°C° 0 mm 2 m/S 762 mmHg 45%
    09:00 +24°C° 0 mm 2 m/S 762 mmHg 39%
    10:00 +26°C° 0 mm 3 m/S 762 mmHg 32%
    11:00 +27°C° 0 mm 4 m/S 762 mmHg 26%
    12:00 +28°C° 0 mm 3 m/S 762 mmHg 24%
    13:00 +29°C° 0 mm 3 m/S 761 mmHg 23%
    14:00 +30°C° 0 mm 3 m/S 761 mmHg 21%
    15:00 +30°C° 0 mm 3 m/S 760 mmHg 21%
    16:00 +29°C° 0 mm 4 m/S 760 mmHg 21%
    17:00 +29°C° 0 mm 4 m/S 760 mmHg 22%
    18:00 +27°C° 0 mm 4 m/S 760 mmHg 25%
    19:00 +25°C° 0 mm 4 m/S 760 mmHg 27%
    20:00 +22°C° 0 mm 4 m/S 761 mmHg 30%
    21:00 +22°C° 0 mm 3 m/S 761 mmHg 31%
    22:00 +21°C° 0 mm 3 m/S 761 mmHg 32%
    23:00 +20°C° 0 mm 3 m/S 761 mmHg 33%

    übermorgen, 29 Mai, Mittwoch

    Zeit Temperatur Niederschläge Wind Luftdruck Luftfeuchtigkeit
    00:00 +20°C° 0 mm 3 m/S 761 mmHg 33%
    01:00 +20°C° 0 mm 2 m/S 760 mmHg 33%
    02:00 +20°C° 0 mm 2 m/S 760 mmHg 32%
    03:00 +20°C° 0 mm 2 m/S 760 mmHg 34%
    04:00 +20°C° 0 mm 2 m/S 759 mmHg 36%
    05:00 +20°C° 0 mm 1 m/S 759 mmHg 38%
    06:00 +21°C° 0 mm 1 m/S 760 mmHg 38%
    07:00 +22°C° 0 mm 1 m/S 760 mmHg 38%
    08:00 +23°C° 0 mm 1 m/S 760 mmHg 39%
    09:00 +25°C° 0 mm 2 m/S 760 mmHg 34%
    10:00 +27°C° 0 mm 2 m/S 760 mmHg 29%
    11:00 +28°C° 0 mm 3 m/S 760 mmHg 24%
    12:00 +29°C° 0 mm 4 m/S 759 mmHg 23%
    13:00 +30°C° 0 mm 4 m/S 759 mmHg 22%
    14:00 +32°C° 0 mm 5 m/S 758 mmHg 21%
    15:00 +30°C° 0 mm 5 m/S 758 mmHg 22%
    16:00 +30°C° 0 mm 5 m/S 757 mmHg 23%
    17:00 +30°C° 0 mm 5 m/S 757 mmHg 24%
    18:00 +28°C° 0 mm 5 m/S 757 mmHg 27%
    19:00 +26°C° 0 mm 4 m/S 757 mmHg 29%
    20:00 +23°C° 0 mm 4 m/S 757 mmHg 32%
    21:00 +23°C° 0 mm 4 m/S 757 mmHg 33%
    22:00 +22°C° 0 mm 4 m/S 757 mmHg 33%
    23:00 +22°C° 0 mm 5 m/S 757 mmHg 34%

    30 Mai, Donnerstag

    Zeit Temperatur Niederschläge Wind Luftdruck Luftfeuchtigkeit
    00:00 +21°C° 0 mm 5 m/S 757 mmHg 36%
    01:00 +21°C° 0 mm 5 m/S 756 mmHg 38%
    02:00 +20°C° 0 mm 5 m/S 756 mmHg 40%
    03:00 +20°C° 0 mm 4 m/S 756 mmHg 45%
    04:00 +20°C° 0 mm 4 m/S 755 mmHg 49%
    05:00 +19°C° 0 mm 4 m/S 755 mmHg 54%
    06:00 +21°C° 0 mm 4 m/S 756 mmHg 52%
    07:00 +22°C° 0 mm 4 m/S 756 mmHg 51%
    08:00 +25°C° 0 mm 4 m/S 756 mmHg 49%
    09:00 +25°C° 0 mm 4 m/S 756 mmHg 51%
    10:00 +26°C° 0 mm 4 m/S 756 mmHg 53%
    11:00 +26°C° 0 mm 4 m/S 756 mmHg 55%
    12:00 +27°C° 0 mm 4 m/S 756 mmHg 52%
    13:00 +27°C° 0 mm 3 m/S 755 mmHg 50%
    14:00 +28°C° 0 mm 2 m/S 755 mmHg 47%
    15:00 +28°C° 0 mm 2 m/S 755 mmHg 46%
    16:00 +28°C° 0 mm 1 m/S 755 mmHg 45%
    17:00 +28°C° 0 mm 1 m/S 755 mmHg 44%
    18:00 +27°C° 0 mm 1 m/S 755 mmHg 48%
    19:00 +26°C° 0 mm 1 m/S 755 mmHg 53%
    20:00 +24°C° 0 mm 2 m/S 755 mmHg 57%
    21:00 +24°C° 0 mm 2 m/S 756 mmHg 62%
    22:00 +24°C° 0 mm 3 m/S 756 mmHg 67%
    23:00 +22°C° 0 mm 3 m/S 756 mmHg 71%

    31 Mai, Freitag

    Zeit Temperatur Niederschläge Wind Luftdruck Luftfeuchtigkeit
    00:00 +22°C° 0 mm 3 m/S 756 mmHg 77%
    01:00 +21°C° 0 mm 3 m/S 756 mmHg 83%
    02:00 +21°C° 0 mm 2 m/S 756 mmHg 89%
    03:00 +21°C° 0 mm 2 m/S 756 mmHg 90%
    04:00 +21°C° 0 mm 2 m/S 756 mmHg 91%
    05:00 +22°C° 0 mm 1 m/S 756 mmHg 92%
    06:00 +23°C° 0 mm 2 m/S 757 mmHg 84%
    07:00 +25°C° 0 mm 2 m/S 757 mmHg 75%
    08:00 +26°C° 0 mm 2 m/S 758 mmHg 66%
    09:00 +28°C° 0 mm 2 m/S 758 mmHg 56%
    10:00 +30°C° 0 mm 3 m/S 758 mmHg 45%
    11:00 +33°C° 0 mm 3 m/S 757 mmHg 35%
    12:00 +33°C° 0 mm 3 m/S 757 mmHg 29%
    13:00 +34°C° 0 mm 4 m/S 756 mmHg 23%
    14:00 +35°C° 0 mm 4 m/S 756 mmHg 17%
    15:00 +34°C° 0 mm 5 m/S 756 mmHg 18%
    16:00 +33°C° 0 mm 5 m/S 756 mmHg 19%
    17:00 +32°C° 0 mm 6 m/S 756 mmHg 20%
    18:00 +30°C° 0 mm 5 m/S 756 mmHg 22%
    19:00 +28°C° 0 mm 5 m/S 756 mmHg 25%
    20:00 +26°C° 0 mm 5 m/S 757 mmHg 28%
    21:00 +25°C° 0 mm 4 m/S 757 mmHg 31%
    22:00 +23°C° 0 mm 4 m/S 757 mmHg 34%
    23:00 +22°C° 0 mm 3 m/S 757 mmHg 37%

    1 Juni, Samstag

    Zeit Temperatur Niederschläge Wind Luftdruck Luftfeuchtigkeit
    00:00 +22°C° 0 mm 3 m/S 756 mmHg 42%
    01:00 +21°C° 0 mm 2 m/S 756 mmHg 47%
    02:00 +21°C° 0 mm 2 m/S 755 mmHg 52%
    03:00 +20°C° 0 mm 2 m/S 755 mmHg 57%
    04:00 +20°C° 0 mm 2 m/S 755 mmHg 61%
    05:00 +20°C° 0 mm 1 m/S 755 mmHg 66%
    06:00 +21°C° 0 mm 2 m/S 756 mmHg 62%
    07:00 +24°C° 0 mm 2 m/S 756 mmHg 58%
    08:00 +26°C° 0 mm 2 m/S 756 mmHg 53%
    09:00 +28°C° 0 mm 2 m/S 756 mmHg 44%
    10:00 +30°C° 0 mm 3 m/S 755 mmHg 35%
    11:00 +31°C° 0 mm 3 m/S 755 mmHg 27%
    12:00 +33°C° 0 mm 3 m/S 754 mmHg 24%
    13:00 +34°C° 0 mm 3 m/S 753 mmHg 22%
    14:00 +35°C° 0 mm 4 m/S 753 mmHg 19%
    15:00 +35°C° 0 mm 4 m/S 753 mmHg 21%
    16:00 +34°C° 0 mm 4 m/S 752 mmHg 22%
    17:00 +34°C° 0 mm 4 m/S 752 mmHg 23%
    18:00 +32°C° 0 mm 4 m/S 752 mmHg 28%
    19:00 +30°C° 0 mm 3 m/S 753 mmHg 33%
    20:00 +28°C° 0 mm 3 m/S 753 mmHg 39%
    21:00 +27°C° 0 mm 3 m/S 753 mmHg 44%
    22:00 +26°C° 0 mm 3 m/S 753 mmHg 49%
    23:00 +25°C° 0 mm 3 m/S 753 mmHg 55%
    Mehr zeigen